owner,sensor,date,latitude,longitude,air_pressure(mBar),qcFlag 
ADCP,ioos:station:wmo:42395:1,2019-04-01T00:00:00Z,26.4040,-90.7920,1016.30859,11111222 
ADCP,ioos:station:wmo:42395:1,2019-04-01T00:20:00Z,26.4040,-90.7920,1016.60156,11111222 
ADCP,ioos:station:wmo:42395:1,2019-04-01T00:40:00Z,26.4040,-90.7920,1016.99219,11111222 
ADCP,ioos:station:wmo:42395:1,2019-04-01T01:00:00Z,26.4040,-90.7920,1017.1875,11111222 
ADCP,ioos:station:wmo:42395:1,2019-04-01T01:20:00Z,26.4040,-90.7920,1017.28516,11111222 
ADCP,ioos:station:wmo:42395:1,2019-04-01T01:40:00Z,26.4040,-90.7920,1017.57813,11111222 
ADCP,ioos:station:wmo:42395:1,2019-04-01T02:00:00Z,26.4040,-90.7920,1018.26172,11111222 
ADCP,ioos:station:wmo:42395:1,2019-04-01T02:20:00Z,26.4040,-90.7920,1018.35938,11111222 
ADCP,ioos:station:wmo:42395:1,2019-04-01T02:40:00Z,26.4040,-90.7920,1018.55469,11111222 
ADCP,ioos:station:wmo:42395:1,2019-04-01T03:00:00Z,26.4040,-90.7920,1019.14063,11111222 
ADCP,ioos:station:wmo:42395:1,2019-04-01T03:20:00Z,26.4040,-90.7920,1018.94531,11111222 
ADCP,ioos:station:wmo:42395:1,2019-04-01T03:40:00Z,26.4040,-90.7920,1019.14063,11111222 
ADCP,ioos:station:wmo:42395:1,2019-04-01T04:00:00Z,26.4040,-90.7920,1018.45703,11111222 
ADCP,ioos:station:wmo:42395:1,2019-04-01T04:20:00Z,26.4040,-90.7920,1018.45703,11111222 
ADCP,ioos:station:wmo:42395:1,2019-04-01T04:40:00Z,26.4040,-90.7920,1018.55469,11111222 
ADCP,ioos:station:wmo:42395:1,2019-04-01T05:00:00Z,26.4040,-90.7920,1018.35938,11111222 
ADCP,ioos:station:wmo:42395:1,2019-04-01T05:20:00Z,26.4040,-90.7920,1018.55469,11111222 
ADCP,ioos:station:wmo:42395:1,2019-04-01T05:40:00Z,26.4040,-90.7920,1018.65234,11111222 
ADCP,ioos:station:wmo:42395:1,2019-04-01T06:00:00Z,26.4040,-90.7920,1018.35938,11111222 
ADCP,ioos:station:wmo:42395:1,2019-04-01T06:20:00Z,26.4040,-90.7920,1017.96875,11111222 
ADCP,ioos:station:wmo:42395:1,2019-04-01T06:40:00Z,26.4040,-90.7920,1018.06641,11111222 
ADCP,ioos:station:wmo:42395:1,2019-04-01T07:00:00Z,26.4040,-90.7920,1017.87109,11111222 
ADCP,ioos:station:wmo:42395:1,2019-04-01T07:20:00Z,26.4040,-90.7920,1017.67578,11111222 
ADCP,ioos:station:wmo:42395:1,2019-04-01T07:40:00Z,26.4040,-90.7920,1017.87109,11111222 
ADCP,ioos:station:wmo:42395:1,2019-04-01T08:00:00Z,26.4040,-90.7920,1017.67578,11111222 
ADCP,ioos:station:wmo:42395:1,2019-04-01T08:20:00Z,26.4040,-90.7920,1017.08984,11111222 
ADCP,ioos:station:wmo:42395:1,2019-04-01T08:40:00Z,26.4040,-90.7920,1016.79688,11111222 
ADCP,ioos:station:wmo:42395:1,2019-04-01T09:00:00Z,26.4040,-90.7920,1016.50391,11111222 
ADCP,ioos:station:wmo:42395:1,2019-04-01T09:20:00Z,26.4040,-90.7920,1016.40625,11111222 
ADCP,ioos:station:wmo:42395:1,2019-04-01T09:40:00Z,26.4040,-90.7920,1016.99219,11111222 
ADCP,ioos:station:wmo:42395:1,2019-04-01T10:00:00Z,26.4040,-90.7920,1016.99219,11111222 
ADCP,ioos:station:wmo:42395:1,2019-04-01T10:20:00Z,26.4040,-90.7920,1017.1875,11111222 
ADCP,ioos:station:wmo:42395:1,2019-04-01T10:40:00Z,26.4040,-90.7920,1017.1875,11111222 
ADCP,ioos:station:wmo:42395:1,2019-04-01T11:00:00Z,26.4040,-90.7920,1017.28516,11111222 
ADCP,ioos:station:wmo:42395:1,2019-04-01T11:20:00Z,26.4040,-90.7920,1017.08984,11111222 
ADCP,ioos:station:wmo:42395:1,2019-04-01T11:40:00Z,26.4040,-90.7920,1017.1875,11111222 
ADCP,ioos:station:wmo:42395:1,2019-04-01T12:00:00Z,26.4040,-90.7920,1017.38281,11111222 
ADCP,ioos:station:wmo:42395:1,2019-04-01T12:20:00Z,26.4040,-90.7920,1017.77344,11111222 
ADCP,ioos:station:wmo:42395:1,2019-04-01T12:40:00Z,26.4040,-90.7920,1018.06641,11111222 
ADCP,ioos:station:wmo:42395:1,2019-04-01T13:00:00Z,26.4040,-90.7920,1018.06641,11111222 
ADCP,ioos:station:wmo:42395:1,2019-04-01T13:20:00Z,26.4040,-90.7920,1018.35938,11111222 
ADCP,ioos:station:wmo:42395:1,2019-04-01T13:40:00Z,26.4040,-90.7920,1018.45703,11111222 
ADCP,ioos:station:wmo:42395:1,2019-04-01T14:00:00Z,26.4040,-90.7920,1018.65234,11111222 
ADCP,ioos:station:wmo:42395:1,2019-04-01T14:20:00Z,26.4040,-90.7920,1018.94531,11111222 
ADCP,ioos:station:wmo:42395:1,2019-04-01T14:40:00Z,26.4040,-90.7920,1019.23828,11111222 
ADCP,ioos:station:wmo:42395:1,2019-04-01T15:00:00Z,26.4040,-90.7920,1019.72656,11111222 
ADCP,ioos:station:wmo:42395:1,2019-04-01T15:20:00Z,26.4040,-90.7920,1019.43359,11111222 
ADCP,ioos:station:wmo:42395:1,2019-04-01T15:40:00Z,26.4040,-90.7920,1019.23828,11111222 
ADCP,ioos:station:wmo:42395:1,2019-04-01T16:00:00Z,26.4040,-90.7920,1019.43359,11111222 
ADCP,ioos:station:wmo:42395:1,2019-04-01T16:20:00Z,26.4040,-90.7920,1019.53125,11111222 
ADCP,ioos:station:wmo:42395:1,2019-04-01T16:40:00Z,26.4040,-90.7920,1019.33594,11111222 
ADCP,ioos:station:wmo:42395:1,2019-04-01T17:00:00Z,26.4040,-90.7920,1019.23828,11111222 
ADCP,ioos:station:wmo:42395:1,2019-04-01T17:20:00Z,26.4040,-90.7920,1019.23828,11111222 
ADCP,ioos:station:wmo:42395:1,2019-04-01T17:40:00Z,26.4040,-90.7920,1018.94531,11111222 
ADCP,ioos:station:wmo:42395:1,2019-04-01T18:00:00Z,26.4040,-90.7920,1018.65234,11111222 
ADCP,ioos:station:wmo:42395:1,2019-04-01T18:20:00Z,26.4040,-90.7920,1018.45703,11111222 
ADCP,ioos:station:wmo:42395:1,2019-04-01T18:40:00Z,26.4040,-90.7920,1018.26172,11111222 
ADCP,ioos:station:wmo:42395:1,2019-04-01T19:00:00Z,26.4040,-90.7920,1018.16406,11111222 
ADCP,ioos:station:wmo:42395:1,2019-04-01T19:20:00Z,26.4040,-90.7920,1017.96875,11111222 
ADCP,ioos:station:wmo:42395:1,2019-04-01T19:40:00Z,26.4040,-90.7920,1017.96875,11111222 
ADCP,ioos:station:wmo:42395:1,2019-04-01T20:00:00Z,26.4040,-90.7920,1017.67578,11111222 
ADCP,ioos:station:wmo:42395:1,2019-04-01T20:20:00Z,26.4040,-90.7920,1017.48047,11111222 
ADCP,ioos:station:wmo:42395:1,2019-04-01T20:40:00Z,26.4040,-90.7920,1017.28516,11111222 
ADCP,ioos:station:wmo:42395:1,2019-04-01T21:00:00Z,26.4040,-90.7920,1017.38281,11111222 
ADCP,ioos:station:wmo:42395:1,2019-04-01T21:20:00Z,26.4040,-90.7920,1017.08984,11111222 
ADCP,ioos:station:wmo:42395:1,2019-04-01T21:40:00Z,26.4040,-90.7920,1017.08984,11111222 
ADCP,ioos:station:wmo:42395:1,2019-04-01T22:00:00Z,26.4040,-90.7920,1017.1875,11111222 
ADCP,ioos:station:wmo:42395:1,2019-04-01T22:20:00Z,26.4040,-90.7920,1016.89453,11111222 
ADCP,ioos:station:wmo:42395:1,2019-04-01T22:40:00Z,26.4040,-90.7920,1016.99219,11111222 
ADCP,ioos:station:wmo:42395:1,2019-04-01T23:00:00Z,26.4040,-90.7920,1017.1875,11111222 
ADCP,ioos:station:wmo:42395:1,2019-04-01T23:20:00Z,26.4040,-90.7920,1017.1875,11111222 
ADCP,ioos:station:wmo:42395:1,2019-04-01T23:40:00Z,26.4040,-90.7920,1017.28516,11111222 
ADCP,ioos:station:wmo:42395:1,2019-04-02T00:00:00Z,26.4040,-90.7920,1017.38281,11111222 
ADCP,ioos:station:wmo:42395:1,2019-04-02T00:20:00Z,26.4040,-90.7920,1017.57813,11111222 
ADCP,ioos:station:wmo:42395:1,2019-04-02T00:40:00Z,26.4040,-90.7920,1017.67578,11111222 
ADCP,ioos:station:wmo:42395:1,2019-04-02T01:00:00Z,26.4040,-90.7920,1018.06641,11111222 
ADCP,ioos:station:wmo:42395:1,2019-04-02T01:20:00Z,26.4040,-90.7920,1018.26172,11111222 
ADCP,ioos:station:wmo:42395:1,2019-04-02T01:40:00Z,26.4040,-90.7920,1018.35938,11111222 
ADCP,ioos:station:wmo:42395:1,2019-04-02T02:00:00Z,26.4040,-90.7920,1018.65234,11111222 
ADCP,ioos:station:wmo:42395:1,2019-04-02T02:20:00Z,26.4040,-90.7920,1018.94531,11111222 
ADCP,ioos:station:wmo:42395:1,2019-04-02T02:40:00Z,26.4040,-90.7920,1019.43359,11111222 
ADCP,ioos:station:wmo:42395:1,2019-04-02T03:00:00Z,26.4040,-90.7920,1019.43359,11111222 
ADCP,ioos:station:wmo:42395:1,2019-04-02T03:20:00Z,26.4040,-90.7920,1019.62891,11111222 
ADCP,ioos:station:wmo:42395:1,2019-04-02T03:40:00Z,26.4040,-90.7920,1020.01953,11111222 
ADCP,ioos:station:wmo:42395:1,2019-04-02T04:00:00Z,26.4040,-90.7920,1019.92188,11111222 
ADCP,ioos:station:wmo:42395:1,2019-04-02T04:20:00Z,26.4040,-90.7920,1020.01953,11111222 
ADCP,ioos:station:wmo:42395:1,2019-04-02T04:40:00Z,26.4040,-90.7920,1020.21484,11111222 
ADCP,ioos:station:wmo:42395:1,2019-04-02T05:00:00Z,26.4040,-90.7920,1020.01953,11111222 
ADCP,ioos:station:wmo:42395:1,2019-04-02T05:20:00Z,26.4040,-90.7920,1019.92188,11111222 
ADCP,ioos:station:wmo:42395:1,2019-04-02T05:40:00Z,26.4040,-90.7920,1020.11719,11111222 
ADCP,ioos:station:wmo:42395:1,2019-04-02T06:00:00Z,26.4040,-90.7920,1019.92188,11111222 
ADCP,ioos:station:wmo:42395:1,2019-04-02T06:20:00Z,26.4040,-90.7920,1019.92188,11111222 
ADCP,ioos:station:wmo:42395:1,2019-04-02T06:40:00Z,26.4040,-90.7920,1019.72656,11111222 
ADCP,ioos:station:wmo:42395:1,2019-04-02T07:00:00Z,26.4040,-90.7920,1019.72656,11111222 
ADCP,ioos:station:wmo:42395:1,2019-04-02T07:20:00Z,26.4040,-90.7920,1019.43359,11111222 
ADCP,ioos:station:wmo:42395:1,2019-04-02T07:40:00Z,26.4040,-90.7920,1019.43359,11111222 
ADCP,ioos:station:wmo:42395:1,2019-04-02T08:00:00Z,26.4040,-90.7920,1019.43359,11111222 
ADCP,ioos:station:wmo:42395:1,2019-04-02T08:20:00Z,26.4040,-90.7920,1019.14063,11111222 
ADCP,ioos:station:wmo:42395:1,2019-04-02T08:40:00Z,26.4040,-90.7920,1018.94531,11111222 
ADCP,ioos:station:wmo:42395:1,2019-04-02T09:00:00Z,26.4040,-90.7920,1018.94531,11111222 
ADCP,ioos:station:wmo:42395:1,2019-04-02T09:20:00Z,26.4040,-90.7920,1018.94531,11111222 
ADCP,ioos:station:wmo:42395:1,2019-04-02T09:40:00Z,26.4040,-90.7920,1019.04297,11111222 
ADCP,ioos:station:wmo:42395:1,2019-04-02T10:00:00Z,26.4040,-90.7920,1019.04297,11111222 
ADCP,ioos:station:wmo:42395:1,2019-04-02T10:20:00Z,26.4040,-90.7920,1019.33594,11111222 
ADCP,ioos:station:wmo:42395:1,2019-04-02T10:40:00Z,26.4040,-90.7920,1019.53125,11111222 
ADCP,ioos:station:wmo:42395:1,2019-04-02T11:00:00Z,26.4040,-90.7920,1019.62891,11111222 
ADCP,ioos:station:wmo:42395:1,2019-04-02T11:20:00Z,26.4040,-90.7920,1019.62891,11111222 
ADCP,ioos:station:wmo:42395:1,2019-04-02T11:40:00Z,26.4040,-90.7920,1019.82422,11111222 
ADCP,ioos:station:wmo:42395:1,2019-04-02T12:00:00Z,26.4040,-90.7920,1020.11719,11111222 
ADCP,ioos:station:wmo:42395:1,2019-04-02T12:20:00Z,26.4040,-90.7920,1020.11719,11111222 
ADCP,ioos:station:wmo:42395:1,2019-04-02T12:40:00Z,26.4040,-90.7920,1020.3125,11111222 
ADCP,ioos:station:wmo:42395:1,2019-04-02T13:00:00Z,26.4040,-90.7920,1020.01953,11111222 
ADCP,ioos:station:wmo:42395:1,2019-04-02T13:20:00Z,26.4040,-90.7920,1020.3125,11111222 
ADCP,ioos:station:wmo:42395:1,2019-04-02T13:40:00Z,26.4040,-90.7920,1020.99609,11111222 
ADCP,ioos:station:wmo:42395:1,2019-04-02T14:00:00Z,26.4040,-90.7920,1020.89844,11111222 
ADCP,ioos:station:wmo:42395:1,2019-04-02T14:20:00Z,26.4040,-90.7920,1021.19141,11111222 
ADCP,ioos:station:wmo:42395:1,2019-04-02T14:40:00Z,26.4040,-90.7920,1021.28906,11111222 
ADCP,ioos:station:wmo:42395:1,2019-04-02T15:00:00Z,26.4040,-90.7920,1021.38672,11111222 
ADCP,ioos:station:wmo:42395:1,2019-04-02T15:20:00Z,26.4040,-90.7920,1021.67969,11111222 
ADCP,ioos:station:wmo:42395:1,2019-04-02T15:40:00Z,26.4040,-90.7920,1021.875,11111222 
ADCP,ioos:station:wmo:42395:1,2019-04-02T16:00:00Z,26.4040,-90.7920,1022.26563,11111222 
ADCP,ioos:station:wmo:42395:1,2019-04-02T16:20:00Z,26.4040,-90.7920,1022.07031,11111222 
ADCP,ioos:station:wmo:42395:1,2019-04-02T16:40:00Z,26.4040,-90.7920,1022.16797,11111222 
ADCP,ioos:station:wmo:42395:1,2019-04-02T17:00:00Z,26.4040,-90.7920,1022.07031,11111222 
ADCP,ioos:station:wmo:42395:1,2019-04-02T17:20:00Z,26.4040,-90.7920,1021.97266,11111222 
ADCP,ioos:station:wmo:42395:1,2019-04-02T17:40:00Z,26.4040,-90.7920,1021.77734,11111222 
ADCP,ioos:station:wmo:42395:1,2019-04-02T18:00:00Z,26.4040,-90.7920,1021.77734,11111222 
ADCP,ioos:station:wmo:42395:1,2019-04-02T18:20:00Z,26.4040,-90.7920,1021.67969,11111222 
ADCP,ioos:station:wmo:42395:1,2019-04-02T18:40:00Z,26.4040,-90.7920,1021.48438,11111222 
ADCP,ioos:station:wmo:42395:1,2019-04-02T19:00:00Z,26.4040,-90.7920,1021.28906,11111222 
ADCP,ioos:station:wmo:42395:1,2019-04-02T19:20:00Z,26.4040,-90.7920,1021.09375,11111222 
ADCP,ioos:station:wmo:42395:1,2019-04-02T19:40:00Z,26.4040,-90.7920,1021.09375,11111222 
ADCP,ioos:station:wmo:42395:1,2019-04-02T20:00:00Z,26.4040,-90.7920,1020.99609,11111222 
ADCP,ioos:station:wmo:42395:1,2019-04-02T20:20:00Z,26.4040,-90.7920,1020.70313,11111222 
ADCP,ioos:station:wmo:42395:1,2019-04-02T20:40:00Z,26.4040,-90.7920,1020.41016,11111222 
ADCP,ioos:station:wmo:42395:1,2019-04-02T21:00:00Z,26.4040,-90.7920,1020.3125,11111222 
ADCP,ioos:station:wmo:42395:1,2019-04-02T21:20:00Z,26.4040,-90.7920,1020.3125,11111222 
ADCP,ioos:station:wmo:42395:1,2019-04-02T21:40:00Z,26.4040,-90.7920,1020.21484,11111222 
ADCP,ioos:station:wmo:42395:1,2019-04-02T22:00:00Z,26.4040,-90.7920,1020.11719,11111222 
ADCP,ioos:station:wmo:42395:1,2019-04-02T22:20:00Z,26.4040,-90.7920,1020.01953,11111222 
ADCP,ioos:station:wmo:42395:1,2019-04-02T22:40:00Z,26.4040,-90.7920,1020.11719,11111222 
ADCP,ioos:station:wmo:42395:1,2019-04-02T23:00:00Z,26.4040,-90.7920,1019.92188,11111222 
ADCP,ioos:station:wmo:42395:1,2019-04-02T23:20:00Z,26.4040,-90.7920,1019.92188,11111222 
ADCP,ioos:station:wmo:42395:1,2019-04-02T23:40:00Z,26.4040,-90.7920,1019.92188,11111222 
ADCP,ioos:station:wmo:42395:1,2019-04-03T00:00:00Z,26.4040,-90.7920,1019.82422,11111222 
ADCP,ioos:station:wmo:42395:1,2019-04-03T00:20:00Z,26.4040,-90.7920,1019.92188,11111222 
ADCP,ioos:station:wmo:42395:1,2019-04-03T00:40:00Z,26.4040,-90.7920,1020.11719,11111222 
ADCP,ioos:station:wmo:42395:1,2019-04-03T01:00:00Z,26.4040,-90.7920,1020.21484,11111222 
ADCP,ioos:station:wmo:42395:1,2019-04-03T01:20:00Z,26.4040,-90.7920,1020.41016,11111222 
ADCP,ioos:station:wmo:42395:1,2019-04-03T01:40:00Z,26.4040,-90.7920,1020.70313,11111222 
ADCP,ioos:station:wmo:42395:1,2019-04-03T02:00:00Z,26.4040,-90.7920,1020.89844,11111222 
ADCP,ioos:station:wmo:42395:1,2019-04-03T02:20:00Z,26.4040,-90.7920,1020.99609,11111222 
ADCP,ioos:station:wmo:42395:1,2019-04-03T02:40:00Z,26.4040,-90.7920,1021.19141,11111222 
ADCP,ioos:station:wmo:42395:1,2019-04-03T03:00:00Z,26.4040,-90.7920,1021.48438,11111222 
ADCP,ioos:station:wmo:42395:1,2019-04-03T03:20:00Z,26.4040,-90.7920,1021.77734,11111222 
ADCP,ioos:station:wmo:42395:1,2019-04-03T03:40:00Z,26.4040,-90.7920,1021.97266,11111222 
ADCP,ioos:station:wmo:42395:1,2019-04-03T04:00:00Z,26.4040,-90.7920,1021.875,11111222 
ADCP,ioos:station:wmo:42395:1,2019-04-03T04:20:00Z,26.4040,-90.7920,1021.97266,11111222 
ADCP,ioos:station:wmo:42395:1,2019-04-03T04:40:00Z,26.4040,-90.7920,1022.07031,11111222 
ADCP,ioos:station:wmo:42395:1,2019-04-03T05:00:00Z,26.4040,-90.7920,1022.07031,11111222 
ADCP,ioos:station:wmo:42395:1,2019-04-03T05:20:00Z,26.4040,-90.7920,1021.97266,11111222 
ADCP,ioos:station:wmo:42395:1,2019-04-03T05:40:00Z,26.4040,-90.7920,1021.77734,11111222 
ADCP,ioos:station:wmo:42395:1,2019-04-03T06:00:00Z,26.4040,-90.7920,1021.77734,11111222 
ADCP,ioos:station:wmo:42395:1,2019-04-03T06:20:00Z,26.4040,-90.7920,1021.67969,11111222 
ADCP,ioos:station:wmo:42395:1,2019-04-03T06:40:00Z,26.4040,-90.7920,1021.58203,11111222 
ADCP,ioos:station:wmo:42395:1,2019-04-03T07:00:00Z,26.4040,-90.7920,1021.19141,11111222 
ADCP,ioos:station:wmo:42395:1,2019-04-03T07:20:00Z,26.4040,-90.7920,1020.99609,11111222 
ADCP,ioos:station:wmo:42395:1,2019-04-03T07:40:00Z,26.4040,-90.7920,1020.70313,11111222 
ADCP,ioos:station:wmo:42395:1,2019-04-03T08:00:00Z,26.4040,-90.7920,1020.50781,11111222 
ADCP,ioos:station:wmo:42395:1,2019-04-03T08:20:00Z,26.4040,-90.7920,1020.01953,11111222 
ADCP,ioos:station:wmo:42395:1,2019-04-03T08:40:00Z,26.4040,-90.7920,1020.11719,11111222 
ADCP,ioos:station:wmo:42395:1,2019-04-03T09:00:00Z,26.4040,-90.7920,1020.11719,11111222 
ADCP,ioos:station:wmo:42395:1,2019-04-03T09:20:00Z,26.4040,-90.7920,1020.01953,11111222 
ADCP,ioos:station:wmo:42395:1,2019-04-03T09:40:00Z,26.4040,-90.7920,1020.11719,11111222 
ADCP,ioos:station:wmo:42395:1,2019-04-03T10:00:00Z,26.4040,-90.7920,1020.3125,11111222 
ADCP,ioos:station:wmo:42395:1,2019-04-03T10:20:00Z,26.4040,-90.7920,1020.50781,11111222 
ADCP,ioos:station:wmo:42395:1,2019-04-03T10:40:00Z,26.4040,-90.7920,1020.60547,11111222 
ADCP,ioos:station:wmo:42395:1,2019-04-03T11:00:00Z,26.4040,-90.7920,1020.50781,11111222 
ADCP,ioos:station:wmo:42395:1,2019-04-03T11:20:00Z,26.4040,-90.7920,1020.70313,11111222 
ADCP,ioos:station:wmo:42395:1,2019-04-03T11:40:00Z,26.4040,-90.7920,1021.09375,11111222 
ADCP,ioos:station:wmo:42395:1,2019-04-03T12:00:00Z,26.4040,-90.7920,1021.28906,11111222 
ADCP,ioos:station:wmo:42395:1,2019-04-03T12:20:00Z,26.4040,-90.7920,1021.58203,11111222 
ADCP,ioos:station:wmo:42395:1,2019-04-03T12:40:00Z,26.4040,-90.7920,1021.48438,11111222 
ADCP,ioos:station:wmo:42395:1,2019-04-03T13:00:00Z,26.4040,-90.7920,1021.97266,11111222 
ADCP,ioos:station:wmo:42395:1,2019-04-03T13:20:00Z,26.4040,-90.7920,1022.26563,11111222 
ADCP,ioos:station:wmo:42395:1,2019-04-03T13:40:00Z,26.4040,-90.7920,1022.36328,11111222 
ADCP,ioos:station:wmo:42395:1,2019-04-03T14:00:00Z,26.4040,-90.7920,1022.65625,11111222 
ADCP,ioos:station:wmo:42395:1,2019-04-03T14:20:00Z,26.4040,-90.7920,1022.65625,11111222 
ADCP,ioos:station:wmo:42395:1,2019-04-03T14:40:00Z,26.4040,-90.7920,1022.75391,11111222 
ADCP,ioos:station:wmo:42395:1,2019-04-03T15:00:00Z,26.4040,-90.7920,1023.04688,11111222 
ADCP,ioos:station:wmo:42395:1,2019-04-03T15:20:00Z,26.4040,-90.7920,1022.85156,11111222 
ADCP,ioos:station:wmo:42395:1,2019-04-03T15:40:00Z,26.4040,-90.7920,1023.04688,11111222 
ADCP,ioos:station:wmo:42395:1,2019-04-03T16:00:00Z,26.4040,-90.7920,1023.04688,11111222 
ADCP,ioos:station:wmo:42395:1,2019-04-03T16:20:00Z,26.4040,-90.7920,1023.14453,11111222 
ADCP,ioos:station:wmo:42395:1,2019-04-03T16:40:00Z,26.4040,-90.7920,1023.24219,11111222 
ADCP,ioos:station:wmo:42395:1,2019-04-03T17:00:00Z,26.4040,-90.7920,1023.14453,11111222 
ADCP,ioos:station:wmo:42395:1,2019-04-03T17:20:00Z,26.4040,-90.7920,1022.85156,11111222 
ADCP,ioos:station:wmo:42395:1,2019-04-03T17:40:00Z,26.4040,-90.7920,1022.75391,11111222 
ADCP,ioos:station:wmo:42395:1,2019-04-03T18:00:00Z,26.4040,-90.7920,1022.65625,11111222 
ADCP,ioos:station:wmo:42395:1,2019-04-03T18:20:00Z,26.4040,-90.7920,1022.16797,11111222 
ADCP,ioos:station:wmo:42395:1,2019-04-03T18:40:00Z,26.4040,-90.7920,1021.875,11111222 
ADCP,ioos:station:wmo:42395:1,2019-04-03T19:00:00Z,26.4040,-90.7920,1021.58203,11111222 
ADCP,ioos:station:wmo:42395:1,2019-04-03T19:20:00Z,26.4040,-90.7920,1021.38672,11111222 
ADCP,ioos:station:wmo:42395:1,2019-04-03T19:40:00Z,26.4040,-90.7920,1021.19141,11111222 
ADCP,ioos:station:wmo:42395:1,2019-04-03T20:00:00Z,26.4040,-90.7920,1020.99609,11111222 
ADCP,ioos:station:wmo:42395:1,2019-04-03T20:20:00Z,26.4040,-90.7920,1020.70313,11111222 
ADCP,ioos:station:wmo:42395:1,2019-04-03T20:40:00Z,26.4040,-90.7920,1020.41016,11111222 
ADCP,ioos:station:wmo:42395:1,2019-04-03T21:00:00Z,26.4040,-90.7920,1020.11719,11111222 
ADCP,ioos:station:wmo:42395:1,2019-04-03T21:20:00Z,26.4040,-90.7920,1019.82422,11111222 
ADCP,ioos:station:wmo:42395:1,2019-04-03T21:40:00Z,26.4040,-90.7920,1019.62891,11111222 
ADCP,ioos:station:wmo:42395:1,2019-04-03T22:00:00Z,26.4040,-90.7920,1019.23828,11111222 
ADCP,ioos:station:wmo:42395:1,2019-04-03T22:20:00Z,26.4040,-90.7920,1018.84766,11111222 
ADCP,ioos:station:wmo:42395:1,2019-04-03T22:40:00Z,26.4040,-90.7920,1018.65234,11111222 
ADCP,ioos:station:wmo:42395:1,2019-04-03T23:00:00Z,26.4040,-90.7920,1019.14063,11111222 
ADCP,ioos:station:wmo:42395:1,2019-04-03T23:20:00Z,26.4040,-90.7920,1019.43359,11111222 
ADCP,ioos:station:wmo:42395:1,2019-04-03T23:40:00Z,26.4040,-90.7920,1019.53125,11111222 
ADCP,ioos:station:wmo:42395:1,2019-04-04T00:00:00Z,26.4040,-90.7920,1019.82422,11111222 
ADCP,ioos:station:wmo:42395:1,2019-04-04T00:20:00Z,26.4040,-90.7920,1019.82422,11111222 
ADCP,ioos:station:wmo:42395:1,2019-04-04T00:40:00Z,26.4040,-90.7920,1019.92188,11111222 
ADCP,ioos:station:wmo:42395:1,2019-04-04T01:00:00Z,26.4040,-90.7920,1020.11719,11111222 
ADCP,ioos:station:wmo:42395:1,2019-04-04T01:20:00Z,26.4040,-90.7920,1020.3125,11111222 
ADCP,ioos:station:wmo:42395:1,2019-04-04T01:40:00Z,26.4040,-90.7920,1020.60547,11111222 
ADCP,ioos:station:wmo:42395:1,2019-04-04T02:00:00Z,26.4040,-90.7920,1020.89844,11111222 
ADCP,ioos:station:wmo:42395:1,2019-04-04T02:20:00Z,26.4040,-90.7920,1020.89844,11111222 
ADCP,ioos:station:wmo:42395:1,2019-04-04T02:40:00Z,26.4040,-90.7920,1020.89844,11111222 
ADCP,ioos:station:wmo:42395:1,2019-04-04T03:00:00Z,26.4040,-90.7920,1020.70313,11111222 
ADCP,ioos:station:wmo:42395:1,2019-04-04T03:20:00Z,26.4040,-90.7920,1020.60547,11111222 
ADCP,ioos:station:wmo:42395:1,2019-04-04T03:40:00Z,26.4040,-90.7920,1020.41016,11111222 
ADCP,ioos:station:wmo:42395:1,2019-04-04T04:00:00Z,26.4040,-90.7920,1020.3125,11111222 
ADCP,ioos:station:wmo:42395:1,2019-04-04T04:20:00Z,26.4040,-90.7920,1020.11719,11111222 
ADCP,ioos:station:wmo:42395:1,2019-04-04T04:40:00Z,26.4040,-90.7920,1019.33594,11111222 
ADCP,ioos:station:wmo:42395:1,2019-04-04T05:00:00Z,26.4040,-90.7920,1019.04297,11111222 
ADCP,ioos:station:wmo:42395:1,2019-04-04T05:20:00Z,26.4040,-90.7920,1018.55469,11111222 
ADCP,ioos:station:wmo:42395:1,2019-04-04T05:40:00Z,26.4040,-90.7920,1018.16406,11111222 
ADCP,ioos:station:wmo:42395:1,2019-04-04T06:00:00Z,26.4040,-90.7920,1018.26172,11111222 
ADCP,ioos:station:wmo:42395:1,2019-04-04T06:20:00Z,26.4040,-90.7920,1018.35938,11111222 
ADCP,ioos:station:wmo:42395:1,2019-04-04T06:40:00Z,26.4040,-90.7920,1018.06641,11111222 
ADCP,ioos:station:wmo:42395:1,2019-04-04T07:00:00Z,26.4040,-90.7920,1018.16406,11111222 
ADCP,ioos:station:wmo:42395:1,2019-04-04T07:20:00Z,26.4040,-90.7920,1017.96875,11111222 
ADCP,ioos:station:wmo:42395:1,2019-04-04T07:40:00Z,26.4040,-90.7920,1018.45703,11111222 
ADCP,ioos:station:wmo:42395:1,2019-04-04T08:00:00Z,26.4040,-90.7920,1018.75,11111222 
ADCP,ioos:station:wmo:42395:1,2019-04-04T08:20:00Z,26.4040,-90.7920,1018.65234,11111222 
ADCP,ioos:station:wmo:42395:1,2019-04-04T08:40:00Z,26.4040,-90.7920,1018.35938,11111222 
ADCP,ioos:station:wmo:42395:1,2019-04-04T09:00:00Z,26.4040,-90.7920,1018.45703,11111222 
ADCP,ioos:station:wmo:42395:1,2019-04-04T09:20:00Z,26.4040,-90.7920,1018.16406,11111222 
ADCP,ioos:station:wmo:42395:1,2019-04-04T09:40:00Z,26.4040,-90.7920,1017.87109,11111222 
ADCP,ioos:station:wmo:42395:1,2019-04-04T10:00:00Z,26.4040,-90.7920,1018.06641,11111222 
ADCP,ioos:station:wmo:42395:1,2019-04-04T10:20:00Z,26.4040,-90.7920,1017.67578,11111222 
ADCP,ioos:station:wmo:42395:1,2019-04-04T10:40:00Z,26.4040,-90.7920,1016.99219,11111222 
ADCP,ioos:station:wmo:42395:1,2019-04-04T11:00:00Z,26.4040,-90.7920,1016.79688,11111222 
ADCP,ioos:station:wmo:42395:1,2019-04-04T11:20:00Z,26.4040,-90.7920,1016.89453,11111222 
ADCP,ioos:station:wmo:42395:1,2019-04-04T11:40:00Z,26.4040,-90.7920,1017.1875,11111222 
ADCP,ioos:station:wmo:42395:1,2019-04-04T12:00:00Z,26.4040,-90.7920,1017.28516,11111222 
ADCP,ioos:station:wmo:42395:1,2019-04-04T12:20:00Z,26.4040,-90.7920,1017.48047,11111222 
ADCP,ioos:station:wmo:42395:1,2019-04-04T12:40:00Z,26.4040,-90.7920,1017.77344,11111222 
ADCP,ioos:station:wmo:42395:1,2019-04-04T13:00:00Z,26.4040,-90.7920,1018.16406,11111222 
ADCP,ioos:station:wmo:42395:1,2019-04-04T13:20:00Z,26.4040,-90.7920,1018.26172,11111222 
ADCP,ioos:station:wmo:42395:1,2019-04-04T13:40:00Z,26.4040,-90.7920,1018.75,11111222 
ADCP,ioos:station:wmo:42395:1,2019-04-04T14:00:00Z,26.4040,-90.7920,1019.04297,11111222 
ADCP,ioos:station:wmo:42395:1,2019-04-04T14:20:00Z,26.4040,-90.7920,1019.14063,11111222 
ADCP,ioos:station:wmo:42395:1,2019-04-04T14:40:00Z,26.4040,-90.7920,1019.53125,11111222 
ADCP,ioos:station:wmo:42395:1,2019-04-04T15:00:00Z,26.4040,-90.7920,1019.43359,11111222 
ADCP,ioos:station:wmo:42395:1,2019-04-04T15:20:00Z,26.4040,-90.7920,1019.53125,11111222 
ADCP,ioos:station:wmo:42395:1,2019-04-04T15:40:00Z,26.4040,-90.7920,1019.72656,11111222 
ADCP,ioos:station:wmo:42395:1,2019-04-04T16:00:00Z,26.4040,-90.7920,1019.43359,11111222 
ADCP,ioos:station:wmo:42395:1,2019-04-04T16:20:00Z,26.4040,-90.7920,1019.43359,11111222 
ADCP,ioos:station:wmo:42395:1,2019-04-04T16:40:00Z,26.4040,-90.7920,1019.14063,11111222 
ADCP,ioos:station:wmo:42395:1,2019-04-04T17:00:00Z,26.4040,-90.7920,1018.94531,11111222 
ADCP,ioos:station:wmo:42395:1,2019-04-04T17:20:00Z,26.4040,-90.7920,1018.75,11111222 